Regional Weather Roundup
Issued by NWS

Home | Current Version | Previous Version | Graphics & Text | Print | Product List | Glossary On
Versions: 1 2 3 4 5 6 7 8 9 10 11 12 13 14 15 16 17 18 19 20 21 22 23 24 25 26 27 28 29 30 31 32 33 34 35 36 37 38 39 40 41 42 43 44 45 46 47 48 49 50
000
ASUS45 KABQ 211910
RWRNM
WEATHER ROUNDUP FOR NEW MEXICO
NATIONAL WEATHER SERVICE ALBUQUERQUE NM
100 PM MDT TUE OCT 21 2014

NOTE: "FAIR" MEANS FEW OR NO CLOUDS BELOW 12,000 FEET AGL WITH NO
       SIGNIFICANT WEATHER OR OBSTRUCTIONS TO VISION.

      THIS PRODUCT IS RELEASED AS TWO VERSIONS.  ONE VERSION NEAR
      THE TOP OF THE HOUR CONTAINING PRELIMINARY DATA FROM ALBUQUERQUE
      AND OTHER STATIONS.  A FINAL VERSION WITH ADDITIONAL DATA IS
      ISSUED ABOUT 10 MINUTES AFTER THE HOUR.

NMZ501-503-504-510>518-212000-
NORTHWEST PLATEAU/NORTHCENTRAL MOUNTAINS

CITY           SKY/WX    TMP DP  RH WIND       PRES   REMARKS
FARMINGTON     CLOUDY    65  44  46 VRB3      30.11F
LOS ALAMOS     CLOUDY    52  45  76 CALM      30.22F
SANTA FE       CLOUDY    60  43  53 S9        30.17F
TAOS           CLOUDY    55  41  58 CALM      30.21F
ANGEL FIRE     RAIN      48  43  82 SW7       30.25F

$$
NMZ402-403-502-505>509-212000-
WESTCENTRAL MOUNTAINS/SOUTHWEST MOUNTAINS

CITY           SKY/WX    TMP DP  RH WIND       PRES   REMARKS
GALLUP         MOSUNNY   62  44  51 S6        30.15F
GRANTS         MOSUNNY   64  43  45 SE12G17   30.18F
SILVER CITY    MOSUNNY   63  50  63 S10G17    30.15F

$$
NMZ407-409-411-412-212000-
SOUTHERN DESERTS

CITY           SKY/WX    TMP DP  RH WIND       PRES   REMARKS
LORDSBURG      FAIR      68  50  52 MISG      30.08F
DEMING         SUNNY     69  53  56 E6        30.08F
LAS CRUCES     PTSUNNY   68  53  59 S5        30.11F
HOLLOMAN AFB   MOSUNNY   67  55  64 SW5       30.09F
T OR C         MOSUNNY   66  51  58 CALM      30.12F

$$
NMZ519>523-212000-
CENTRAL VALLEYS/CENTRAL HIGHLANDS

CITY           SKY/WX    TMP DP  RH WIND       PRES   REMARKS
ALBUQUERQUE    PTSUNNY   65  46  50 CALM      30.15F
DOUBLE EAGLE   PTSUNNY   61  45  55 S5        30.17F
MORIARTY ARPT  FAIR      63  45  51 S10       30.18F
CLINES CORNERS PTSUNNY   60  43  53 S9G18     30.20F
BELEN          MOCLDY    66  44  44 CALM      30.14F
SOCORRO        CLOUDY    62  49  62 S5        30.13F

$$
NMZ524>526-539-540-212000-
SOUTHCENTRAL MOUNTAINS

CITY           SKY/WX    TMP DP  RH WIND       PRES   REMARKS
RUIDOSO        PTSUNNY   55  48  76 E6        30.23F

$$
NMZ527>531-212000-
NORTHEAST HIGHLANDS/NORTHEAST PLAINS

CITY           SKY/WX    TMP DP  RH WIND       PRES   REMARKS
LAS VEGAS      PTSUNNY   58  44  60 S14       30.20F
RATON          PTSUNNY   62  43  49 S17       30.14F
CLAYTON        MOSUNNY   70  44  39 SW17G29   30.10F

$$
NMZ532>537-212000-
EASTCENTRAL PLAINS

CITY           SKY/WX    TMP DP  RH WIND       PRES   REMARKS
TUCUMCARI      CLOUDY    72  49  44 SW13      30.09F
CANNON AFB     SUNNY     71  48  43 S8        30.11F
CLOVIS AIRPORT NOT AVBL

$$
NMZ028-029-538-212000-
SOUTHEAST PLAINS

CITY           SKY/WX    TMP DP  RH WIND       PRES   REMARKS
ROSWELL        CLOUDY    65  58  78 W5        30.10F
CARLSBAD       PTSUNNY   69  59  70 S8        30.07F
HOBBS          LGT RAIN  63  61  94 S13       30.12F


$$



USA.gov is the U.S. government's official web portal to all federal, state and local government web resources and services.